EUTELSAT 5 WEST B

Last updated on Nov. 29, 2020, 6:16 a.m. UTC

1 44624U 19067A   20333.39354740 -.00000024  00000-0  00000+0 0  9995
2 44624   0.0589 357.5051 0002303 196.8247  10.1357  1.00271098  4127
UTC
Height (km)
Latitude
Longitude
Inclination
Orbital Period
UTC large
Height (km)
Speed (km/s)
/
Latitude / Longitude
Inclination (degrees)
Orbital Period (minutes)
Azimuth
Elevation
Range (km)
Doppler Factor
iOS Compass Heading
iOS Angle

Next 30 passes for location: Hong Kong

Rise time Rise Azimuth (degrees) Set time Set Azimuth (degrees) Duration Max altitude (degrees)

No matching passes for this satellites